Regional Weather Roundup
Issued by NWS New Orleans/Baton Rouge, LA

Home | Current Version | Previous Version | Text Only | Print | Product List | Glossary On
Versions: 1 2 3 4 5 6 7 8 9 10 11 12 13 14 15 16 17 18 19 20 21 22 23 24 25 26 27 28 29 30 31 32 33 34 35 36 37 38 39 40 41 42 43 44 45 46 47 48 49 50
000
ASUS44 KLIX 012101
RWRLIX
NEW ORLEANS REGIONAL WEATHER ROUNDUP
NATIONAL WEATHER SERVICE NEW ORLEANS LA
300 PM CST SUN MAR 01 2015

NOTE: "FAIR" INDICATES FEW OR NO CLOUDS BELOW 12,000 FEET WITH NO
      SIGNIFICANT WEATHER AND/OR OBSTRUCTIONS TO VISIBILITY.
      SKY/WX - SKY CONDITION AND SIGNIFICANT WEATHER.
      TMP - AIR TEMPERATURE.     DP    - DEWPOINT TEMPERATURE.
      RH  - RELATIVE HUMIDITY.   PRES  - PRESSURE.
      HI  - HEAT INDEX.          WCI   - WIND CHILL INDEX.

*  THESE STATIONS ARE NOT NWS OR FAA STATIONS AND ARE NOT UNDER
   NWS QUALITY CONTROL.

LAZ038-040-048-061>063-065>067-069-012200-
SOUTHEAST LOUISIANA

CITY           SKY/WX    TMP DP  RH WIND       PRES   REMARKS
N.O. AUDUBON     N/A     64  61  90 MISG        N/A
N.O. INTL ARPT CLOUDY    66  60  81 E5        30.26S HAZE
N.O. LAKEFRONT CLOUDY    60  56  86 E12       30.27F FOG
SLIDELL        CLOUDY    63  59  87 SE7       30.27S
BATON ROUGE    CLOUDY    63  61  93 E10       30.23F FOG
BOOTHVILLE     CLOUDY    71  67  87 E10       30.25F
BELLE CHASSE   CLOUDY    67  63  87 E8        30.25F FOG
BOGALUSA*        N/A     66  58  77 SE6       30.29S
GALLIANO*      CLOUDY    73  66  77 E5        30.24S
NEW ROADS*     NOT AVBL
GONZALES*      NOT AVBL
HAMMOND*       NOT AVBL
HOUMA*         PTSUNNY   75  68  78 SE13      30.23F
PORT FOURCHON* CLEAR     68  64  88 E9        30.26S FOG

$$

MSZ070-080>082-012200-
SOUTHERN MISSISSIPPI

CITY           SKY/WX    TMP DP  RH WIND       PRES   REMARKS
MCCOMB         CLOUDY    64  60  87 SE10      30.26F
GULFPORT       CLOUDY    62  59  90 E9        30.27F FOG
BILOXI         NOT AVBL
PASCAGOULA     CLOUDY    59  57  93 E6        30.29F FOG
STENNIS ARPT*  CLOUDY    61  55  82 E12       30.27F

$$

COASTAL OBSERVATIONS
LAKE AND NEARSHORE STATIONS

STATION/POSITION TIME  TEMP    WIND        PRES    WAVE
                       AIR SEA DIR/SP/G            HT/PER
                 (UTC) (F)     (DEG/KT/KT) (MB)    (FT/S)
PASCAGOULA       2000   58      70/ 11/ 14 1025.2
WAVELAND YACHT   2000   58 54  110/ 11/ 14 1024.8
GRAND ISLE       2000   68 58  110/  6/  9 1024.1
SOUTHWEST PASS   2000   70 48  100/ 15/ 15 1024.1
NEW CANAL        2018   60      CALM  /  3 1025.1
SHELL BEACH      2000   59 54   70/ 10/ 11 1024.4

OFFSHORE STATIONS

STATION/POSITION TIME  TEMP    WIND        PRES    WAVE
                       AIR SEA DIR/SP/G            HT/PER
                 (UTC) (F)     (DEG/KT/KT) (MB)    (FT/S)
64 S DAUPHIN ISL 2014   70 71  120/ 10/ 12 1025.0    4/ 7

$$




USA.gov is the U.S. government's official web portal to all federal, state and local government web resources and services.